Location: ?????????
(54.7630°N, 39.4991°E)
Time: 07:00:58
(UTC+00:00)

DNEPR-1 R/B - Pass Details

Date: 14 April 2026
Orbit: 581 x 1331 km, 64.6° (Epoch: 13 May)

Event Time Altitude Azimuth Distance (km) Brightness Sun altitude
Rises 19:07:56 0° 229° (SW) 2,798 6.9 -19.7°
Reaches altitude 10° 19:10:07 10° 231° (SW) 1,901 6.0 -19.9°
Maximum altitude 19:14:18 79° 318° (NW) 621 3.6 -20.2°
Drops below altitude 10° 19:18:53 10° 46° (NE) 2,071 6.4 -20.6°
Sets 19:21:20 0° 48° (NE) 3,073 7.3 -20.8°
